STARLINK-32520, 62021

Orbit data source: Space-Track

STARLINK-32520, 62021 is a payload satellite owned by SpaceX/Seattle (US) in LEO that was launched on Mon, 18 Nov 2024 UTC via an FALCON 9 launch vehicle from the Air Force Western Test Range (AFWTR). Payload-class satellites include a variety of spacecraft equipped with specific instruments for various scientific and technological missions. These include communications satellites like Starlink; space stations such as the ISS; scientific satellites like the Hubble; Earth observation satellites from companies like Planet Labs, Umbra, and HawkEye 360; GPS; miniature CubeSats for education and research; and military/defense satellites.

Loading next visibility...
Identifier
62021, 2024-213P
Orbit
LEO
Country
Flag of USUS
Related business
Manufacturer
SpaceX/Seattle
Mission
Operational Commercial Communications
Bus & Motor
STARLINK V2M, Unknown motor
Mass
730 kg wet, ~700 kg dry
Launch date (UTC)
2024-11-18 (2 years ago)
Launch vehicle
FALCON 9
Launch site
Air Force Western Test Range (AFWTR)
Object type
Payload
Rocket body
Debris
Shape & HBR
Box + 2 Pan, 17.7 m
Radar Cross Section
33.884 m², Large (>1 m²)

Expand to show TLE details & history
Last TLE update: 2 days ago

TLE from 2 days ago
0 STARLINK-32520
1 62021U 24213P   26171.38591698  .00028532  00000-0  97017-3 0  9996
2 62021  53.1608  51.4238 0001029  75.5595 284.5520 15.30253318 88875
Epoch: 2026-06-20T09:15Z
TLE epoch observation values (Epoch: 2026-06-20T09:15:43.227Z)
Latitude
Longitude
3.8924°
Altitude
475.779 km
Speed
7.629 km/s
True Right ascension
03h 25m 41s
True Declination
0° 00' 00"
Sunlit
Object was in daylight at epoch
Visualization orbit readout
Latitude
Unknown
Longitude
Unknown
Altitude
Unknown
Speed
Unknown
Apparent Right ascension
Unknown
Apparent Declination
Unknown
Sunlit
N/A
Visualization observer readout
Local Sidereal Time
21:43:27
Azimuth
Unknown
Elevation
Unknown
Doppler factor
Unknown
Orbital elements
Apogee altitude
476.017 km
Perigee altitude
474.607 km
Semi-major axis
6,853.449 km
Eccentricity
0.0001
Inclination
53.1608°
RAAN
51.4238°
Arg. of periapsis
75.5595°
True anomaly
284.54059°
Mean anomaly
284.552°
Eccentric anomaly
284.54629°
Mean motion
3.82542 °/min
Orbital period
94.11 mins
BSTAR
0.00097017
Loading maneuver chart data...
Computing Atmospheric mass density...
Loading historical data...
Loading historical data...
Loading historical data...
Loading historical data...
Loading historical data...
Loading historical data...
Loading historical data...

Documentation

Showing up to 5 results
|